Home > Weather > Currie > Past weeks

Flag for Australia Past Weather in Currie, Tasmania, Australia — Yesterday and Last 2 Weeks

Now
53 °F

Drizzle. Overcast.


Feels Like: 48 °F
Forecast: 53 / 57 °F
Wind: 21 mph from West

Location: King Island Airport

Current Time: Jul 29, 2016 at 10:11:44 AM

Latest Report: Jul 29, 2016 at 9:00 AM


Visibility: 2 mi

Pressure: 30.02 "Hg

Humidity: 90%

Dew Point: 50 °F

Location of CurrieLocation

Past Weather in Currie — Graph

°F

Currie Temperature Yesterday

Maximum temperature yesterday: 54 °F (at 12:00 PM)
Minimum temperature yesterday: 52 °F (at 12:00 AM)
Average temperature yesterday: 53 °F

High & Low Weather Summary for the Past Weeks

 TemperatureHumidityPressure
High60 °F (Jul 22, 1:00 AM)97% (Jul 21, 8:00 PM)30.45 "Hg (Jul 21, 8:00 PM)
Low42 °F (Jul 20, 11:00 PM)53% (Jul 26, 7:00 AM)29.23 "Hg (Jul 22, 10:00 AM)
Average52 °F78%29.92 "Hg
* Reported Jul 14 9:00 AM — Jul 29 9:00 AM, Currie, Weather by CustomWeather, © 2016

Note: Actual official high and low records may vary slightly from our data, if they occured in-between our weather recording intervals... More about our weather records

Advertising

Currie Weather History for the Previous 24 Hours

Scroll right to see more
 ConditionsComfort  
Time TempWeatherWind HumidityBarometerVisibility
9:00 AM
Fri, Jul 29
53 °FDrizzle. Overcast.21 mph90%30.02 "Hg2 mi
8:00 AM53 °FCool.23 mph86%30.02 "HgN/A
7:00 AM52 °FCool.23 mph88%30.01 "HgN/A
6:00 AM54 °FOvercast.20 mph84%30.00 "HgN/A
5:00 AM54 °FCool.20 mph82%30.00 "HgN/A
4:00 AM54 °FCool.22 mph81%30.00 "HgN/A
3:00 AM53 °FOvercast.23 mph78%30.01 "HgN/A
2:00 AM53 °FCool.22 mph81%30.02 "HgN/A
1:00 AM54 °FCool.23 mph81%30.03 "HgN/A
12:00 AM54 °FOvercast.21 mph79%30.05 "HgN/A
11:00 PM
Thu, Jul 28
53 °FCool.23 mph81%30.06 "HgN/A
10:00 PM53 °FCool.22 mph85%30.07 "HgN/A
9:00 PM54 °FOvercast.21 mph75%30.09 "HgN/A
8:00 PM52 °FCool.17 mph92%30.09 "HgN/A
7:00 PM53 °FCool.20 mph91%30.09 "HgN/A
6:00 PM53 °FLow clouds.20 mph93%30.08 "HgN/A
5:00 PM53 °FCool.23 mph82%30.09 "HgN/A
4:00 PM53 °FCool.23 mph84%30.08 "HgN/A
3:00 PM54 °FOvercast.21 mph81%30.08 "HgN/A
2:00 PM53 °FCool.21 mph75%30.08 "HgN/A
1:00 PM53 °FCool.24 mph92%30.09 "HgN/A
12:00 PM54 °FLow clouds.21 mph90%30.09 "HgN/A
11:00 AM53 °FCool.25 mph85%30.11 "HgN/A
10:00 AM52 °FCool.22 mph85%30.10 "HgN/A
Weather by CustomWeather, © 2016

See weather overviewHow to use our weather pages